Location: Unspecified
(0.0000°N, 0.0000°E)
Time: 17:29:25
(UTC+00:00)

Vanguard 3 - Pass Details

Date: 08 February 2023
Orbit: 509 x 3249 km, 33.3° (Epoch: 20 March)

Event Time Altitude Azimuth Distance (km) Brightness Sun altitude
Rises 15:08:16 0° 278° (W) 2,644 10.4 44.5°
Reaches altitude 10° 15:11:32 10° 311° (NW) 1,919 9.5 43.7°
Maximum altitude 15:13:21 12° 337° (NNW) 1,898 9.2 43.3°
Drops below altitude 10° 15:15:25 10° 2° (N) 2,237 9.3 42.8°
Sets 15:20:03 0° 30° (NNE) 3,672 10.2 41.7°
